CW8593 Weather Reports


Display with metric or nautical units.
time (UTC)temp
F
wind
direction
speed
MPH
gust
MPH
rain 1hr
in
rain 24hr
in
rain mn
in
humidity
%
barometer
mb
20141025024308 61 155 0.0 1.0 0.00 0.00 0.00 61 1016.7
20141025021306 63 155 0.0 3.0 0.00 0.00 0.00 61 1016.8
20141025020306 62 155 2.0 3.0 0.00 0.00 0.00 62 1016.9
20141025015307 62 155 1.0 3.0 0.00 0.00 0.00 64 1017.0
20141025014307 62 155 0.0 1.0 0.00 0.00 0.00 62 1016.9
20141025012307 63 155 2.0 3.0 0.00 0.00 0.00 63 1016.9
20141025005307 63 155 2.0 3.0 0.00 0.00 0.00 64 1017.1
20141025004307 63 155 1.0 3.0 0.00 0.00 0.00 65 1017.0
20141025003307 62 155 1.0 3.0 0.00 0.00 0.00 69 1017.1
20141025001309 63 155 2.0 3.0 0.00 0.00 0.00 69 1017.2
20141025000308 63 155 0.0 3.0 0.00 0.00 0.00 70 1017.3
20141024234308 62 155 0.0 2.0 0.00 0.00 0.00 71 1017.3
20141024231307 64 155 0.0 3.0 0.00 0.00 0.00 67 1017.4
20141024230308 64 155 0.0 2.0 0.00 0.00 0.00 70 1017.3
20141024223308 64 155 1.0 2.0 0.00 0.00 0.00 67 1017.2
20141024220307 65 155 1.0 3.0 0.00 0.00 0.00 63 1017.3
20141024215309 64 155 2.0 3.0 0.00 0.00 0.00 65 1017.2
20141024214307 63 155 0.0 3.0 0.00 0.00 0.00 67 1017.2
20141024211306 65 154 2.0 3.0 0.00 0.00 0.00 63 1017.0
20141024210307 64 155 2.0 3.0 0.00 0.00 0.00 63 1017.1
20141024205307 64 155 0.0 2.0 0.00 0.00 0.00 60 1016.9
20141024204307 64 155 2.0 3.0 0.00 0.00 0.00 58 1016.8
20141024202307 64 155 0.0 2.0 0.00 0.00 0.00 61 1016.6
20141024200307 64 155 0.0 0.0 0.00 0.00 0.00 62 1016.5
20141024195307 64 155 0.0 1.0 0.00 0.00 0.00 62 1016.4
20141024194307 65 155 0.0 2.0 0.00 0.00 0.00 61 1016.4
20141024193307 64 155 0.0 2.0 0.00 0.00 0.00 61 1016.4
20141024185307 65 155 0.0 3.0 0.00 0.00 0.00 64 1016.2
20141024184307 65 154 2.0 3.0 0.00 0.00 0.00 65 1016.3
20141024183306 65 154 0.0 3.0 0.00 0.00 0.00 67 1016.3
20141024180307 66 154 1.0 2.0 0.00 0.00 0.00 66 1016.2
20141024173306 67 153 0.0 1.0 0.00 0.00 0.00 65 1015.8
20141024172306 68 153 0.0 0.0 0.00 0.00 0.00 64 1015.8
20141024171307 69 153 0.0 0.0 0.00 0.00 0.00 63 1015.7
20141024170306 69 153 0.0 0.0 0.00 0.00 0.00 62 1015.5
20141024161307 71 153 1.0 6.0 0.00 0.00 0.00 55 1015.3
20141024160306 72 153 3.0 5.0 0.00 0.00 0.00 52 1015.2
20141024155307 73 154 1.0 6.0 0.00 0.00 0.00 46 1015.1
20141024153307 74 155 2.0 3.0 0.00 0.00 0.00 42 1015.2
20141024151306 74 155 2.0 5.0 0.00 0.00 0.00 37 1015.1
20141024150305 74 155 1.0 6.0 0.00 0.00 0.00 43 1015.1
20141024145307 74 153 3.0 6.0 0.00 0.00 0.00 38 1014.9
20141024144307 75 153 2.0 8.0 0.00 0.00 0.00 37 1015.0
20141024143306 75 148 3.0 6.0 0.00 0.00 0.00 35 1014.9
20141024140307 75 140 1.0 3.0 0.00 0.00 0.00 36 1015.0
20141024135305 76 142 3.0 6.0 0.00 0.00 0.00 40 1015.0
20141024133307 76 164 1.0 3.0 0.00 0.00 0.00 39 1015.0
20141024125306 74 159 3.0 5.0 0.00 0.00 0.00 43 1015.3
20141024124306 74 160 1.0 5.0 0.00 0.00 0.00 42 1015.3
20141024123306 74 160 2.0 5.0 0.00 0.00 0.00 42 1015.3
20141024122306 74 167 2.0 5.0 0.00 0.00 0.00 42 1015.5
20141024121307 74 191 3.0 5.0 0.00 0.00 0.00 41 1015.6
20141024120307 74 192 2.0 8.0 0.00 0.00 0.00 46 1015.7
20141024115306 74 235 3.0 7.0 0.00 0.00 0.00 47 1015.8
20141024114306 74 136 3.0 6.0 0.00 0.00 0.00 45 1015.8
20141024112306 74 138 3.0 6.0 0.00 0.00 0.00 45 1016.2
20141024111306 73 123 2.0 5.0 0.00 0.00 0.00 46 1016.2
20141024110307 73 122 2.0 5.0 0.00 0.00 0.00 48 1016.4
20141024104306 74 146 2.0 5.0 0.00 0.00 0.00 44 1016.3
20141024101307 72 137 2.0 3.0 0.00 0.00 0.00 46 1016.3
20141024100305 71 137 1.0 5.0 0.00 0.00 0.00 49 1016.3
20141024094307 71 116 1.0 3.0 0.00 0.00 0.00 49 1016.2
20141024092307 70 116 2.0 5.0 0.00 0.00 0.00 51 1016.2
20141024091307 70 96 3.0 5.0 0.00 0.00 0.00 51 1016.3
20141024090307 70 305 1.0 3.0 0.00 0.00 0.00 52 1016.2
20141024084306 72 309 1.0 3.0 0.00 0.00 0.00 52 1016.3
20141024083306 72 309 0.0 1.0 0.00 0.00 0.00 52 1016.3
20141024082306 70 307 0.0 0.0 0.00 0.00 0.00 56 1016.3
20141024081306 68 308 0.0 1.0 0.00 0.00 0.00 56 1016.3
20141024080306 67 309 0.0 2.0 0.00 0.00 0.00 58 1016.2
20141024075306 66 308 1.0 2.0 0.00 0.00 0.00 60 1016.3
20141024074307 66 307 1.0 3.0 0.00 0.00 0.00 61 1016.3
20141024073306 66 308 0.0 0.0 0.00 0.00 0.00 60 1016.1
20141024072306 65 309 0.0 0.0 0.00 0.00 0.00 60 1016.1
20141024070306 62 308 0.0 0.0 0.00 0.00 0.00 63 1015.7
20141024063306 58 308 2.0 3.0 0.00 0.00 0.00 64 1015.3
20141024062306 58 307 0.0 1.0 0.00 0.00 0.00 66 1015.1
20141024061305 58 307 0.0 0.0 0.00 0.00 0.00 64 1015.1
20141024052306 57 308 0.0 2.0 0.00 0.00 0.00 62 1014.9
20141024051306 57 307 0.0 2.0 0.00 0.00 0.00 62 1014.8
20141024050306 58 308 0.0 0.0 0.00 0.00 0.00 61 1014.9
20141024042306 60 308 0.0 1.0 0.00 0.00 0.00 53 1014.7
20141024040306 62 307 1.0 3.0 0.00 0.00 0.00 49 1014.8
20141024035306 61 308 4.0 6.0 0.00 0.00 0.00 49 1014.8
20141024034306 60 0 0.0 2.0 0.00 0.00 0.00 56 1014.8
20141024031306 60 0 0.0 1.0 0.00 0.00 0.00 58 1014.9
20141024030306 61 0 1.0 2.0 0.00 0.00 0.00 58 1014.8
20141024025305 59 0 0.0 2.0 0.00 0.00 0.00 63 1014.9